Location: Unspecified
(40.7945°N, 0.0000°E)
Time: 06:13:34
(UTC+00:00)

Tiros 1 despin weight - Pass Details

Date: 22 January 2021
Orbit: 593 x 642 km, 48.2° (Epoch: 06 March)

Event Time Altitude Azimuth Distance (km) Brightness Sun altitude
Rises 19:44:47 0° 299° (WNW) 2,847 ? -30.0°
Reaches altitude 10° 19:47:07 10° 303° (WNW) 1,936 ? -30.4°
Enters shadow 19:49:03 25° 312° (NW) 1,225 ? -30.8°
